[[{"header":{"parameterUnit":"m.s-1","parameterCategory":1,"la1":30.2992,"la2":30.254,"lo1":-89.0895,"lo2":-89.0443,"dy":0.0025,"dx":0.0025,"nx":19,"ny":19,"refTime":"2026-04-28T21:00:00:Z","depth":0,"parameterNumber":2,"parameterNumberName":"U-component_of_WINDS"},"data":[0,0,0,-0.467,-0.4664,-0.4364,-0.4363,-0.3953,-0.3949,0,0,0,0,0,0,0,0,0,0,0,-0.4753,-0.475,-0.4671,-0.4663,-0.4364,-0.4363,-0.3953,-0.3949,0,0,0,0,0,0,0,0,0,0,0,-0.4754,-0.4751,-0.4747,-0.4662,-0.4364,-0.4363,-0.3954,-0.4187,0,0,0,0,0,0,0,0,0,0,-0.4481,-0.4555,-0.4751,-0.4747,-0.466,-0.4365,-0.4363,-0.4199,-0.4173,-0.408,0,-0.4005,0,-0.3971,-0.3921,-0.3919,0,0,0,-0.4664,-0.4576,-0.4502,-0.4746,-0.4657,-0.4365,-0.4499,-0.4184,-0.4155,-0.4045,-0.4,-0.3985,-0.3965,-0.3918,-0.3916,-0.3399,-0.3396,0,0,-0.4681,-0.4693,-0.4523,-0.4483,-0.454,-0.4509,-0.449,-0.4167,-0.4114,-0.3998,-0.3976,-0.3958,-0.3915,-0.3912,-0.3401,-0.3398,0,0,0,-0.4727,-0.4704,-0.4639,-0.45,-0.4449,-0.45,-0.4479,-0.4128,-0.4106,-0.3971,-0.3953,-0.3913,-0.3908,-0.3404,-0.34,-0.3291,0,0,0,-0.4737,-0.4732,-0.4646,-0.465,-0.4455,-0.4287,-0.4447,-0.4129,-0.4092,-0.3955,-0.3913,-0.3903,-0.3407,-0.3402,-0.33,-0.3234,0,0,0,-0.4774,-0.4736,-0.4692,-0.4651,-0.4524,-0.4292,-0.4252,-0.4121,-0.408,-0.3919,-0.3902,-0.3409,-0.3403,-0.3308,-0.3248,-0.31,0,0,0,-0.4813,-0.4595,-0.469,-0.4439,-0.4527,-0.4231,-0.4254,-0.403,-0.3879,-0.3911,-0.3406,-0.34,-0.331,-0.3256,-0.3109,-0.2976,-0.2924,0,0,-0.4544,-0.4563,-0.4414,-0.4491,-0.4182,-0.4275,-0.3946,-0.3791,-0.376,-0.3518,-0.3505,-0.3297,-0.3248,-0.3102,-0.2632,-0.2591,0,0,0,-0.4332,-0.4225,-0.4141,-0.4002,-0.3886,-0.3776,-0.3673,-0.3615,-0.3411,-0.3642,-0.3205,-0.3176,-0.3089,-0.3024,-0.2989,-0.2911,-0.3373,-0.3374,-0.3374,-0.3964,-0.3944,-0.3694,-0.3636,-0.35,-0.3397,-0.3281,-0.3184,-0.3197,-0.3094,-0.3021,-0.274,-0.2666,-0.2639,-0.2558,-0.2953,-0.2952,-0.2952,-0.2951,-0.3564,-0.3406,-0.3436,-0.3204,-0.3179,-0.2979,-0.2868,-0.2885,-0.2689,-0.2794,-0.2716,-0.2829,-0.2595,-0.2522,-0.2943,-0.2944,-0.2945,-0.2946,-0.2947,-0.3317,-0.3238,-0.3178,-0.2975,-0.2818,-0.2764,-0.2577,-0.256,-0.2541,-0.2465,-0.2382,-0.2384,-0.2379,-0.2428,-0.2427,-0.2426,-0.2425,-0.2424,-0.2424,-0.3083,-0.302,-0.2869,-0.2728,-0.2636,-0.2511,-0.2404,-0.2309,-0.2198,-0.2198,-0.2198,-0.2217,-0.258,-0.2668,-0.2408,-0.2411,-0.2413,-0.2414,-0.2416,-0.2678,-0.2768,-0.2536,-0.2444,-0.2274,-0.2117,-0.21,-0.1907,-0.1826,-0.1732,-0.1768,-0.2042,-0.2056,-0.2084,-0.2156,-0.1779,-0.1779,-0.1779,-0.1779,-0.2466,-0.2476,-0.2234,-0.2088,-0.1942,-0.1904,-0.163,-0.1542,-0.1463,-0.1409,-0.1462,-0.1559,-0.1588,-0.1584,-0.1623,-0.169,-0.1203,-0.1202,-0.1202,-0.2214,-0.2208,-0.1984,-0.192,-0.1785,-0.1666,-0.1407,-0.1228,-0.1157,-0.1178,-0.1365,-0.1389,-0.1545,-0.1598,-0.162,-0.168,-0.1804,0,0]},{"header":{"parameterUnit":"m.s-1","parameterCategory":1,"la1":30.2992,"la2":30.254,"lo1":-89.0895,"lo2":-89.0443,"dy":0.0025,"dx":0.0025,"nx":19,"ny":19,"refTime":"2026-04-28T21:00:00:Z","depth":0,"parameterNumber":3,"parameterNumberName":"V-component_of_WINDS"},"data":[0,0,0,-2.9224,-2.9226,-2.9356,-2.9357,-2.9455,-2.9456,0,0,0,0,0,0,0,0,0,0,0,-2.9147,-2.9147,-2.9223,-2.9226,-2.9356,-2.9357,-2.9455,-2.9456,0,0,0,0,0,0,0,0,0,0,0,-2.9148,-2.9147,-2.9146,-2.9226,-2.9356,-2.9357,-2.9455,-2.938,0,0,0,0,0,0,0,0,0,0,-2.9264,-2.9158,-2.9147,-2.9146,-2.9227,-2.9356,-2.9357,-2.9377,-2.9385,-2.9368,0,-2.9347,0,-2.9403,-2.9458,-2.9458,0,0,0,-2.9252,-2.9152,-2.9222,-2.9146,-2.9227,-2.9356,-2.9305,-2.9382,-2.939,-2.9377,-2.935,-2.9355,-2.9405,-2.9458,-2.9459,-2.9287,-2.9285,0,0,-2.9245,-2.9149,-2.9216,-2.9226,-2.9206,-2.93,-2.9308,-2.9388,-2.9349,-2.935,-2.9358,-2.9406,-2.9459,-2.9459,-2.9289,-2.9286,0,0,0,-2.9206,-2.9143,-2.9213,-2.922,-2.9249,-2.9303,-2.9313,-2.9346,-2.9377,-2.936,-2.9408,-2.9459,-2.9459,-2.9291,-2.9288,-2.9094,0,0,0,-2.9203,-2.9121,-2.9208,-2.915,-2.9246,-2.93,-2.9267,-2.9371,-2.9384,-2.9407,-2.9459,-2.946,-2.9294,-2.9289,-2.9105,-2.9016,0,0,0,-2.9151,-2.9115,-2.9122,-2.9145,-2.9199,-2.9301,-2.9338,-2.9376,-2.9411,-2.9458,-2.946,-2.9295,-2.929,-2.9114,-2.9032,-2.8942,0,0,0,-2.9067,-2.8945,-2.9117,-2.9,-2.9197,-2.9183,-2.9338,-2.9331,-2.9349,-2.9459,-2.9293,-2.9288,-2.9117,-2.9041,-2.8951,-2.8846,-2.8795,0,0,-2.886,-2.8917,-2.8856,-2.9014,-2.8945,-2.9171,-2.9073,-2.9177,-2.9266,-2.9273,-2.9271,-2.9101,-2.9033,-2.8944,-2.8547,-2.8505,0,0,0,-2.8757,-2.8711,-2.8715,-2.873,-2.8811,-2.8871,-2.9002,-2.9041,-2.9054,-2.9252,-2.905,-2.9012,-2.8963,-2.8917,-2.8882,-2.8844,-2.9264,-2.9265,-2.9265,-2.8321,-2.8449,-2.8355,-2.8498,-2.851,-2.8649,-2.8669,-2.8745,-2.8865,-2.8815,-2.8816,-2.8561,-2.8504,-2.8478,-2.8438,-2.8775,-2.8774,-2.8774,-2.8773,-2.8026,-2.798,-2.815,-2.812,-2.8253,-2.8227,-2.8356,-2.8443,-2.8435,-2.857,-2.8534,-2.8666,-2.8429,-2.84,-2.876,-2.8762,-2.8764,-2.8765,-2.8766,-2.775,-2.7751,-2.7806,-2.7843,-2.7856,-2.8005,-2.7992,-2.8114,-2.8228,-2.8192,-2.8205,-2.8208,-2.8223,-2.8191,-2.819,-2.8189,-2.8189,-2.8188,-2.8187,-2.7441,-2.751,-2.7486,-2.7565,-2.7593,-2.7643,-2.7784,-2.7812,-2.7874,-2.7963,-2.7964,-2.8085,-2.8385,-2.8454,-2.8174,-2.8176,-2.8178,-2.8179,-2.818,-2.7086,-2.7188,-2.715,-2.7178,-2.7281,-2.7285,-2.7446,-2.7493,-2.7534,-2.7522,-2.7656,-2.7859,-2.7923,-2.7952,-2.801,-2.7632,-2.7632,-2.7632,-2.7632,-2.6849,-2.6898,-2.6889,-2.6925,-2.6975,-2.7116,-2.7065,-2.7174,-2.73,-2.7333,-2.7407,-2.7497,-2.7521,-2.7571,-2.7608,-2.7664,-2.7206,-2.7206,-2.7206,-2.6637,-2.6696,-2.6631,-2.6764,-2.6855,-2.6928,-2.6884,-2.6914,-2.708,-2.7191,-2.736,-2.7378,-2.7525,-2.7566,-2.7673,-2.7729,-2.7834,0,0]}]]